250  
ASUS41 KBOX 231110  
RWRBOX  
 
REGIONAL WEATHER ROUNDUP  
NATIONAL WEATHER SERVICE BOSTON/NORTON MA  
700 AM EDT MON APR 23 2018  
 
NOTE: "FAIR" INDICATES FEW OR NO CLOUDS BELOW 12,000 FEET WITH NO  
SIGNIFICANT WEATHER AND/OR S TO VISIBILITY
.  
 
MAZALL-231200-  
EASTERN MASSACHUSETTS  
 
CITY SKY/WX TMP DP RH WIND PRES REMARKS
 
BOSTON FAIR 46 20 35 NW8 30.48R  
BEVERLY FAIR 34 28 79 N5 30.47R WCI 30  
LAWRENCE FAIR 40 26 57 CALM 30.50R  
BEDFORD FAIR 33 27 78 CALM 30.47R  
BLUE HILL N/A 41 18 39 N7 30.45R  
NORWOOD FAIR 37 34 89 CALM 30.49R  
MARSHFIELD FAIR 39 32 75 VRB5 30.47R  
PLYMOUTH FAIR 34 29 82 CALM 30.47R  
TAUNTON FAIR 32 30 92 CALM 30.47R  
NEW BEDFORD FAIR 34 32 92 CALM 30.47R  

 
 
MAZALL-231200-  
CAPE COD AND THE ISLANDS  
 
CITY SKY/WX TMP DP RH WIND PRES REMARKS
 
FALMOUTH FAIR 41 28 60 N6 30.47  
HYANNIS FAIR 45 35 68 N7 30.44R  
CHATHAM FAIR 45 36 70 N3 30.46R  
PROVINCETOWN FAIR 44 37 76 N6 30.47R  
NANTUCKET FAIR 44 40 85 N10 30.44R  
MARTHAS VNYRD FAIR 41 32 70 N6 30.46R  

 
 
MAZALL-231200-  
CENTRAL AND WESTERN MASSACHUSETTS  
 
CITY SKY/WX TMP DP RH WIND PRES REMARKS
 
WORCESTER FAIR 42 21 43 CALM 30.46R  
FITCHBURG FAIR 36 28 73 NW5 30.49R  
ORANGE FAIR 28 26 92 CALM 30.50R  
SPRINGFIELD SUNNY 29 27 89 CALM 30.48R  
WESTFIELD FAIR 31 25 78 CALM 30.49R  
NORTH ADAMS FAIR 27 23 85 CALM 30.50R  
PITTSFIELD FAIR 29 25 85 CALM 30.46R  

 
 
RIZALL-231200-  
RHODE ISLAND  
 
CITY SKY/WX TMP DP RH WIND PRES REMARKS
 
PROVIDENCE FAIR 41 29 62 CALM 30.48R  
NEWPORT FAIR 43 26 51 N7 30.47R  
BLOCK ISLAND FAIR 46 25 43 N3 30.47R  
SMITHFIELD FAIR 43 18 36 MISG 30.48R  
WESTERLY FAIR 37 31 78 NE3 30.48R  

 
 
CTZALL-231200-  
CONNECTICUT  
 
CITY SKY/WX TMP DP RH WIND PRES REMARKS
 
BRADLEY INTL FAIR 35 25 66 N5 30.49R WCI 31  
HARTFORD FAIR 38 26 62 N3 30.49R  
BRIDGEPORT FAIR 42 30 62 NE3 30.47R  
DANBURY FAIR 31 27 85 CALM 30.49R  
GROTON FAIR 41 25 53 N8 30.47R  
NEW HAVEN FAIR 40 28 62 NE3 30.47R  
CHESTER FAIR 45 16 31 N5 30.47R  
MERIDEN FAIR 35 28 75 CALM 30.49R  
WILLIMANTIC FAIR 32 27 81 CALM 30.50R  
OXFORD FAIR 42 18 37 VRB3 30.47R  

 
 
MEZ002-015-021-024-NHZ003-005-008-011-012-014-VTZ005-008-231200-  
NORTHERN NEW ENGLAND  
 
CITY SKY/WX TMP DP RH WIND PRES REMARKS
 
PORTLAND ME FAIR 37 25 61 W7 30.46R WCI 32  
BANGOR ME FAIR 32 24 72 CALM 30.43R  
CONCORD NH FAIR 31 24 75 CALM 30.49R  
MANCHESTER NH FAIR 37 24 59 CALM 30.47R  
NASHUA NH FAIR 32 27 81 CALM 30.49R  
PORTSMOUTH NH SUNNY 36 29 74 W3 30.46R  
JAFFREY NH FAIR 27 24 89 CALM 30.46R  
KEENE NH FAIR 27 25 92 S5 30.51R WCI 22  
BURLINGTON VT FAIR 33 25 72 CALM 30.48R  
MT. WASHINGTON MOSUNNY 27 9 46 NW15 N/A WCI 15  

 
 
NYZ052-076-231200-  
EASTERN NEW YORK  
 
CITY SKY/WX TMP DP RH WIND PRES REMARKS
 
ALBANY FAIR 31 24 75 E3 30.49R  
NEW YORK CITY FAIR 46 37 71 NE8 30.45R  

 
 
ANZALL-231200-  
MARINE OBSERVATIONS  
 
STATION/POSITION TIME TEMP WIND PRES VSBY WAVE
 
AIR SEA DIR/SP/G HT/PER  
(UTC) (F) (DEG/KT/KT) (MB) (MI) (FT/S)  
BOSTON BUOY 1050 44 44 330/ 6/ 8 1030.8R 1  
BUZZARDS BAY NOT AVBL  
NANTUCKET SOUND 0950 44 44 350/ 10/ 10 1030.0 0  
MASS BAY-STELLWA 1004 43 44 1029.6R 1  
ISLE OF SHOALS NOT AVBL  
S OF BLOCK IS 1043 42 N/A 1/ 3  

 
   
.....................KEY......................
 
 
SKY/WX - SKY CONDITION/PRESENT WEATHER  
TMP - TEMPERATURE IN FAHRENHEIT  
DWPT - DEWPOINT IN FAHRENHEIT  
RH - RELATIVE HUMIDITY IN PERCENT  
WIND - DIRECTION AND SPEED IN MPH  
PRES - MEAN SEA LEVEL PRESSURE IN INCHES OF HG  
WCI - WIND CHILL INDEX  
VSB - VISIBILITY IN MILES  
HX - HEAT INDEX  
TC - TEMPERATURE IN CELSIUS  
VRB - VARIABLE WIND DIRECTION  
N/A - NOT AVAILABLE  
 
 
CLICK HERE TO GO TO PREVIOUS BULLETINS.

The Nexlab MA Page
The Nexlab RI Page
The Nexlab NH Page
The Nexlab CT Page Main Text Page